Location: Bois de la Silve
(44.4667°N, 6.7833°E)
Time: 10:40:54
(UTC+00:00)

Cosmos 1238 Rocket - Pass Details

Date: 14 July 2020
Orbit: 373 x 1030 km, 82.9° (Epoch: 05 August)

Event Time Altitude Azimuth Distance (km) Brightness Sun altitude
Exits shadow 00:49:52 40° 245° (WSW) 1,129 4.0 -21.9°
Maximum altitude 00:51:00 46° 281° (W) 995 4.0 -21.9°
Drops below altitude 10° 00:55:29 10° 355° (N) 2,068 6.7 -21.6°
Sets 00:57:37 0° 2° (N) 2,879 7.8 -21.5°
